Other Surface Observations
Issued by NWS

Home | Current Version | Previous Version | Text Only | Print | Product List | Glossary On
Versions: 1 2 3 4 5 6 7 8 9 10 11 12 13 14 15 16 17 18 19 20 21 22 23 24 25 26 27 28 29 30 31 32 33 34 35 36 37 38 39 40 41 42 43 44 45 46 47 48 49 50
000
SXUS52 KTAE 230418
OSOTAE
OSOTAE
North Florida/South Alabama/Southwest Georgia Weather Roundup
National Weather Service Tallahassee Florida
1200 AM EDT WED JUL 23 2014

Note: "fair" indicates few or no clouds below 12,000 feet with no
significant weather and/or obstructions to visibility.

!FLZ017-115-028-034-025-230500
...North Florida...

CITY           SKY/WX    TMP DP  RH WIND       PRES   REMARKS
TALLAHASSEE    CLEAR     77  73  87 CALM      30.07S
APALACHICOLA   CLEAR     75  71  87 NE5       30.07S
PERRY          CLEAR     73  72  94 CALM      30.08S
CROSS CITY       N/A     76  73  91 CALM      30.06F
HOMERVILLE     FAIR      77  73  88 CALM      30.08F
JACKSONVILLE   CLOUDY    78  76  93 CALM      30.07S
$$

!FLZ112-006-005-002-011-230500
...Florida Panhandle...

CITY           SKY/WX    TMP DP  RH WIND       PRES   REMARKS
MARIANNA       PTCLDY    76  75  97 VRB3      30.07S
BONIFAY        NOT AVBL
PANAMA CITY NW FAIR      77  73  87 CALM      30.06S
TYNDALL AFB    CLEAR     75  75  99 E2        30.07F
TYND DRONE APT FAIR      75  74  96 NE1       30.06S
DE FUNIAK SPR  FAIR      73  73  98 CALM      30.08S
EGLIN AFB      PTCLDY    79  75  86 CALM      30.05F
DESTIN         CLEAR     80  76  87 CALM      30.05F
HURLBURT       CLEAR     79  72  78 E2        30.04F
CRESTVIEW      PTCLDY    73  72  96 NE3       30.07F
PENSACOLA      CLEAR     77  73  87 CALM      30.05F
$$

!ALZ063-066-230500
...South Alabama...

CITY           SKY/WX    TMP DP  RH WIND       PRES   REMARKS
DOTHAN         HVY RAIN  73  73 100 S6        30.12S FOG
OZARK CAIRNS   CLEAR     75  73  93 NE2       30.07F
FT RUCKER HELI CLEAR     75  72  90 NE3       30.06F
RUCKER HELI 3  FAIR      74  73  95 N2        30.10F
RUCKER HELI 2  NOT AVBL
FLORALA APT    NOT AVBL
ANDALUSIA      MOCLDY    79  74  84 CALM      30.07F
TROY           CLEAR     74  72  93 CALM      30.08F
EUFALA         NOT AVBL
MOBILE         CLOUDY    74  73  97 CALM      30.06R
$$

!GAZ120>161-230500
...Southwest and South Central Georgia...

CITY           SKY/WX    TMP DP  RH WIND       PRES   REMARKS
THOMASVILLE    FAIR      75  75 100 CALM      30.09S
BAINBRIDGE     PTCLDY    79  73  83 CALM      30.08S
MOODY AFB      CLEAR     74  74  99 N1        30.07F
VALDOSTA       CLEAR     76  70  82 CALM      30.07F
MOULTRIE       MOCLDY    77  73  88 CALM      30.09S
BLAKELY        CLOUDY    77  75  94 CALM      30.08F
ALBANY         PTCLDY    77  73  87 CALM      30.09S
TIFTON         FAIR      76  73  90 CALM      30.08F
FITZGERALD     FAIR      76  73  91 CALM      30.11S
CORDELE        FAIR      76  73  90 E3        30.09S
AMERICUS       FAIR      73  72  94 N3        30.10F
$$

!GMZ750-755-770-775-230500
...Coastal and Buoy Obs...

STATION/POSITION TIME  TEMP    WIND        PRES    VSBY  WAVE
                       AIR SEA DIR/SP/G                  HT/PER
                 (UTC) (F)     (DEG/KT/KT) (MB)    (MI)  (FT/S)
KEATON BEACH     0400   83     270/  3/  5 1018.2S
CEDAR KEY        0400   82      90/  5/  6 1018.6F
C TOWER          0400   82      CALM  /  4 1018.1F
APALACHICOLA BUO 0400   83 84  140/  2/  2 1018.2S         1/ 8
PANAMA CITY BUOY 0320   81 83  210/  2/  4 1017.9F         2/ 5
MOBILE BUOY      NOT AVBL
ORANGE BCH AL BU 0400   82 83   CALM  /  2 1017.6F         1/ 3
$$



USA.gov is the U.S. government's official web portal to all federal, state and local government web resources and services.